Kansas City International, MO

9:31 AM CDT on March 26, 2017 (GMT -0500)
Kansas City International

Weather History for KMCI - December, 2012

Change the Weather History Date:

Monday, December 3, 2012

  Actual Average Record
Temperature  
Mean Temperature 61 °F 35 °F  
Max Temperature 74 °F 44 °F 74 °F (2012)
Min Temperature 47 °F 26 °F 6 °F (1895)
Degree Days  
Heating Degree Days 4 30  
Month to date heating degree days 23 89  
Since 1 July heating degree days 970 1091  
Cooling Degree Days 0 0  
Month to date cooling degree days 0 0  
Year to date cooling degree days 1839 1360  
Growing Degree Days 10 (Base 50)    
Moisture  
Dew Point 49 °F    
Average Humidity 64    
Maximum Humidity 84    
Minimum Humidity 44    
Precipitation  
Precipitation 0.00 in 0.06 in 2.01 in (1947)
Month to date precipitation T 0.18  
Year to date precipitation 20.94 37.51  
Snow  
Snow 0.00 in 0.20 in 7.20 in (1898)
Month to date snowfall 0.0 0.4  
Since 1 July snowfall T 1.8  
Snow Depth 0.00 in    
Sea Level Pressure  
Sea Level Pressure 29.81 in    
Wind  
Wind Speed 17 mph (SW)    
Max Wind Speed 35 mph    
Max Gust Speed 43 mph    
Visibility 10 miles    
Events      
T = Trace of Precipitation, MM = Missing Value Source: NWS Daily Summary

Daily Weather History Graph

Daily Weather History Graph

Search for Another Location

Airport or City:

Trip Planner

Search our weather history database for the weather conditions in past years. The results will help you decide how hot, cold, wet, or windy it might be!

Date:

Astronomy

Dec. 03, 2012 Rise Set
Actual Time 7:21 AM CST 4:55 PM CST
Civil Twilight 6:52 AM CST 5:25 PM CST
Nautical Twilight 6:18 AM CST 5:58 PM CST
Astronomical Twilight 5:46 AM CST 6:31 PM CST
Moon 9:42 PM CST (12/3) 10:46 AM CST (12/3)
Length of Visible Light 10h 33m
Length of Day
9h 33m
Waning Gibbous, 78% of the Moon is Illuminated
Dec 3
Waning Gibbous
Dec 6
Last Quarter
Dec 13
New
Dec 19
First Quarter
Dec 28
Full

Hourly Weather History & Observations

Time (CST) Temp. Windchill Dew Point Humidity Pressure Visibility Wind Dir Wind Speed Gust Speed Precip Events Conditions
12:53 AM 61.0 °F - 55.9 °F 83% 29.81 in 10.0 mi South 17.3 mph - N/A   Partly Cloudy
1:53 AM 61.0 °F - 55.9 °F 83% 29.79 in 10.0 mi South 18.4 mph - N/A   Clear
2:53 AM 63.0 °F - 57.0 °F 81% 29.77 in 10.0 mi South 20.7 mph 29.9 mph N/A   Clear
3:53 AM 64.0 °F - 57.0 °F 78% 29.73 in 10.0 mi South 24.2 mph 31.1 mph N/A   Partly Cloudy
4:53 AM 63.0 °F - 57.0 °F 81% 29.72 in 10.0 mi South 21.9 mph 29.9 mph N/A   Partly Cloudy
5:53 AM 64.0 °F - 57.0 °F 78% 29.71 in 10.0 mi South 20.7 mph 26.5 mph N/A   Partly Cloudy
6:53 AM 64.0 °F - 55.9 °F 75% 29.70 in 10.0 mi South 21.9 mph 29.9 mph N/A   Partly Cloudy
7:53 AM 64.0 °F - 57.0 °F 78% 29.71 in 10.0 mi South 25.3 mph 32.2 mph N/A   Partly Cloudy
8:17 AM 64.4 °F - 57.2 °F 77% 29.72 in 10.0 mi South 24.2 mph 35.7 mph N/A   Mostly Cloudy
8:53 AM 66.0 °F - 57.0 °F 73% 29.71 in 10.0 mi SSW 25.3 mph 40.3 mph N/A   Mostly Cloudy
9:53 AM 66.9 °F - 57.0 °F 70% 29.73 in 10.0 mi SSW 24.2 mph 41.4 mph N/A   Overcast
10:53 AM 68.0 °F - 55.9 °F 65% 29.72 in 10.0 mi SSW 26.5 mph 39.1 mph N/A   Overcast
11:53 AM 70.0 °F - 55.9 °F 61% 29.72 in 10.0 mi SW 21.9 mph 36.8 mph N/A   Mostly Cloudy
12:53 PM 70.0 °F - 54.0 °F 57% 29.73 in 9.0 mi WSW 17.3 mph 27.6 mph N/A   Mostly Cloudy
1:53 PM 72.0 °F - 51.1 °F 48% 29.74 in 10.0 mi WSW 18.4 mph 26.5 mph N/A   Mostly Cloudy
2:53 PM 71.1 °F - 50.0 °F 47% 29.76 in 10.0 mi West 9.2 mph 20.7 mph N/A   Clear
3:53 PM 64.0 °F - 43.0 °F 46% 29.81 in 10.0 mi NNW 18.4 mph 24.2 mph N/A   Overcast
4:53 PM 57.9 °F - 41.0 °F 53% 29.86 in 10.0 mi NNW 10.4 mph - N/A   Overcast
5:53 PM 57.9 °F - 41.0 °F 53% 29.90 in 10.0 mi North 10.4 mph - N/A   Overcast
6:53 PM 57.9 °F - 41.0 °F 53% 29.93 in 10.0 mi North 10.4 mph - N/A   Overcast
7:53 PM 57.0 °F - 39.9 °F 53% 29.96 in 10.0 mi North 15.0 mph - N/A   Overcast
8:53 PM 53.1 °F - 37.0 °F 55% 29.98 in 10.0 mi North 9.2 mph - N/A   Scattered Clouds
9:53 PM 51.1 °F - 34.0 °F 52% 29.99 in 10.0 mi North 10.4 mph - N/A   Mostly Cloudy
10:53 PM 50.0 °F - 32.0 °F 50% 30.02 in 10.0 mi North 4.6 mph - N/A   Mostly Cloudy
11:53 PM 46.4 °F 43.5 °F 30.2 °F 53% 30.04 in 10.0 mi North 5.8 mph - N/A   Mostly Cloudy